Theta_e
342 344 344 344 345 344 340 339 339 342 341 341 342 342 342 339 342 343 344 343 341 338 341 344 345 348 344 342 346 344 342 341 337 336 339 346 343 344 345 343 340 340 339
344 344 346 346 344 344 345 342 344 342 341 340 342 345 344 344 345 345 345 344 341 340 342 341 341 343 345 349 348 347 345 345 344 339 338 340 344 345 344 343 343 343 342
344 345 347 347 345 345 346 346 345 346 345 342 341 342 345 345 345 345 345 344 343 344 342 341 342 342 342 346 350 347 347 344 344 345 339 339 342 341 340 343 343 342 342
347 347 348 347 347 347 347 347 346 346 347 346 344 345 346 346 345 345 345 345 345 344 344 343 342 342 342 343 348 347 346 346 345 345 346 344 343 345 344 342 342 343 343
347 348 348 347 347 347 348 347 346 346 346 347 347 346 345 345 346 345 346 346 346 345 345 345 345 343 342 346 346 346 345 344 344 345 346 347 344 343 338 336 337 340 342
348 348 348 348 348 348 349 348 346 345 347 345 346 347 348 346 345 345 345 346 346 345 345 344 345 345 344 344 344 346 347 345 344 344 344 345 346 343 342 341 335 341 341
349 349 348 348 349 349 349 348 347 346 345 346 346 347 347 348 346 345 344 345 346 345 345 346 344 344 345 345 344 344 345 344 346 344 346 342 344 345 345 338 339 340 336
350 349 350 350 349 350 349 348 348 346 345 347 348 346 349 345 346 345 344 344 345 345 345 344 345 345 345 345 345 345 345 344 343 346 346 345 346 346 345 345 344 344 345
350 350 351 351 350 350 350 349 348 347 348 349 348 347 347 349 341 344 345 345 345 346 346 346 346 346 346 345 346 346 346 347 345 339 340 342 343 344 342 342 342 339 336
352 352 352 352 351 351 350 350 350 349 348 348 348 348 348 343 348 351 343 344 345 345 346 347 347 347 346 346 346 346 346 347 346 346 342 339 339 339 341 342 343 344 343
344 346 352 352 351 351 351 350 349 348 349 348 348 347 348 348 346 346 351 345 344 345 345 345 346 347 347 346 346 346 346 347 346 346 346 346 345 345 344 343 343 344 346
348 349 347 350 352 351 350 349 349 350 350 350 348 348 348 347 346 346 346 346 345 346 346 346 345 346 346 347 347 346 346 347 346 346 346 346 342 344 345 345 345 344 348
346 347 347 347 351 350 348 348 347 349 350 351 349 349 348 348 348 347 346 346 346 345 347 348 347 346 344 344 347 346 346 346 346 344 342 342 347 345 344 345 346 345 344
344 347 347 347 347 345 344 344 344 344 347 349 350 350 349 349 348 348 347 345 348 345 346 347 347 346 346 346 345 344 345 345 347 346 340 347 347 346 343 342 345 346 345
344 344 346 345 344 343 344 343 343 346 346 347 348 349 350 350 349 347 348 348 347 353 351 347 347 346 346 345 345 346 347 347 347 347 348 347 348 349 349 348 348 348 348
343 345 343 344 346 345 344 343 344 346 346 348 349 349 349 350 350 349 349 349 348 348 352 347 347 348 347 348 347 346 344 345 345 346 346 347 346 348 348 349 349 349 349
345 344 344 344 341 341 342 344 344 345 346 347 348 349 349 348 347 348 349 350 349 348 348 348 347 347 348 348 347 345 344 346 345 347 347 347 347 349 348 348 348 348 348
344 346 345 344 344 342 341 342 341 343 344 347 347 347 348 348 348 346 349 349 348 348 347 348 348 347 347 346 347 346 345 345 347 348 347 347 349 348 348 348 347 347 346
337 338 344 346 345 344 342 340 339 340 342 345 347 348 348 347 349 348 348 347 344 347 348 347 347 347 347 347 347 347 348 348 349 350 350 349 349 349 349 349 347 346 347
335 334 336 339 342 345 345 344 345 344 346 346 345 343 343 344 345 347 348 346 343 347 348 347 347 347 348 347 347 348 347 348 346 348 348 348 348 348 349 347 347 344 345
337 337 336 335 336 343 345 343 344 346 347 346 345 346 346 347 347 347 347 349 348 348 347 347 348 348 347 347 348 347 348 346 345 346 346 347 347 348 348 349 348 346 347
338 337 337 337 336 335 340 338 338 337 338 345 346 347 347 348 348 347 347 347 347 347 346 346 347 347 347 347 347 346 346 346 349 346 347 348 347 347 347 348 348 342 344
330 330 331 331 331 331 331 336 337 336 336 338 339 342 343 341 342 346 348 347 347 346 346 346 346 347 347 348 347 346 345 345 346 344 343 345 345 346 347 345 338 337 338
328 331 331 331 331 331 332 333 333 335 336 337 337 338 340 341 341 343 349 350 349 347 344 343 344 346 346 347 346 347 347 345 344 345 342 342 340 341 340 338 333 332 334
330 332 331 331 331 331 331 331 331 333 336 338 338 338 340 340 340 340 341 342 342 342 343 344 345 346 345 346 346 347 346 343 343 343 344 340 338 337 335 333 335 336 335
331 330 329 330 330 329 327 328 329 332 336 336 334 334 337 340 340 340 338 337 339 339 338 339 340 341 343 346 347 346 346 343 343 342 342 341 340 337 340 336 337 339 338
Wind_Speed
19 18 18 17 16 14 12 14 16 16 15 14 15 15 15 15 16 16 17 17 20 19 19 19 21 19 17 16 16 15 14 14 13 13 12 11 10 9 9 8 7 7 7
21 19 18 16 17 15 14 13 11 14 16 15 15 15 15 15 16 17 19 19 19 19 21 21 20 22 21 19 18 18 17 16 16 15 14 14 13 11 10 10 9 9 8
22 22 20 19 18 18 15 14 15 14 13 15 17 17 18 19 18 17 15 17 18 19 18 20 22 22 23 22 22 21 20 19 19 18 16 15 14 13 13 12 12 12 10
23 23 23 22 17 14 14 13 14 14 16 15 17 17 17 19 19 18 17 18 19 20 22 22 18 20 24 22 24 24 24 24 23 22 21 19 17 16 16 15 15 14 13
23 24 24 23 22 16 15 14 13 14 15 15 19 19 19 19 20 20 19 19 21 21 22 23 24 19 20 23 24 26 26 26 26 27 25 23 21 20 19 19 18 16 15
23 23 22 23 21 19 17 17 17 15 15 15 14 17 18 20 21 23 23 21 21 22 21 20 20 23 24 22 24 25 26 26 27 27 28 27 25 24 22 21 20 20 18
26 24 25 23 23 23 20 19 18 18 17 17 12 12 17 21 21 24 24 24 23 24 24 21 23 22 23 25 25 25 23 26 28 28 27 28 28 27 26 25 24 23 22
28 27 26 26 25 24 23 21 21 19 19 15 8 5 2 4 15 24 26 27 27 25 26 24 24 25 25 24 23 24 24 24 26 27 28 27 27 28 27 25 25 25 25
28 30 29 28 28 26 26 25 24 23 20 13 19 6 1 3 3 5 16 26 29 28 28 27 26 24 26 27 26 25 24 23 23 24 27 28 28 28 28 28 29 30 29
26 26 30 30 29 29 29 25 24 23 24 18 13 23 18 4 2 3 4 7 12 22 29 28 27 27 26 28 27 26 25 24 24 23 25 24 25 25 26 25 25 26 26
23 22 26 28 31 29 28 25 22 22 23 23 20 12 20 20 15 5 4 5 6 10 14 22 29 31 30 31 31 30 28 27 25 25 24 24 25 26 28 28 26 26 26
21 18 19 22 28 27 25 24 20 20 19 21 21 23 16 6 8 8 6 8 8 13 13 15 19 25 31 33 31 29 28 29 28 28 25 25 24 24 24 25 24 25 23
20 19 14 17 23 19 12 14 13 13 15 18 22 20 20 27 21 15 12 6 6 5 6 16 17 17 18 25 33 32 29 29 29 28 28 27 27 22 25 25 25 25 22
20 17 11 14 16 13 8 6 6 8 14 16 20 23 23 23 23 22 20 10 3 4 5 11 12 14 16 20 24 27 31 32 33 29 28 27 24 24 22 25 26 27 25
16 14 7 6 10 9 8 3 4 7 11 16 19 20 21 20 22 22 21 23 11 3 3 8 6 7 9 11 15 21 25 26 27 27 24 24 21 21 26 28 30 29 31
14 13 10 5 8 8 7 6 5 9 11 11 14 16 18 18 19 22 24 24 22 16 5 8 9 14 16 13 13 15 19 23 25 26 26 24 24 23 24 25 25 28 29
16 13 9 9 8 8 7 2 6 10 11 15 17 14 16 15 17 16 18 21 22 22 10 12 17 15 12 14 13 12 13 15 19 21 22 22 23 22 20 20 21 22 24
17 19 9 9 5 8 9 7 5 7 10 17 19 16 16 15 17 17 15 19 20 22 21 15 19 16 16 16 14 11 10 15 14 14 14 16 18 19 17 18 19 20 20
18 19 19 12 9 11 10 9 7 7 10 16 19 12 10 10 18 20 22 24 21 19 25 18 16 16 15 15 11 12 10 9 14 14 15 16 18 19 18 18 17 17 18
15 17 18 17 17 12 9 13 18 22 21 19 18 12 10 14 16 18 18 22 25 23 21 21 19 19 17 14 12 14 15 16 15 13 15 15 15 17 19 20 19 20 21
11 13 16 16 17 13 10 10 9 9 15 17 15 17 17 16 18 19 19 20 19 19 18 14 14 13 14 13 13 13 14 14 15 17 16 17 17 17 17 17 18 19 20
10 12 14 15 15 13 10 14 13 14 14 14 14 14 14 14 17 19 18 17 17 20 21 16 16 15 18 18 15 16 15 11 4 13 14 18 19 20 19 19 17 17 16
13 15 16 17 19 18 17 16 16 18 18 18 18 17 17 15 14 16 16 16 17 18 17 17 17 16 18 23 19 17 17 16 15 15 10 11 15 20 17 15 15 15 15
15 15 16 16 18 17 16 17 17 18 18 18 19 18 18 17 14 13 13 11 12 12 13 15 20 21 23 23 21 19 18 20 19 19 13 6 12 14 14 15 17 18 18
14 14 14 13 14 14 14 15 16 17 18 18 17 17 17 17 14 11 12 13 14 15 13 14 16 16 15 16 17 17 17 14 8 11 19 13 10 12 11 14 15 15 15
15 15 15 14 11 14 17 19 21 21 16 14 12 12 15 17 16 13 13 13 13 13 9 7 10 13 14 15 14 16 18 17 11 4 15 16 14 10 4 12 17 19 18
Wind_Direction
243 244 249 252 257 265 248 239 242 242 244 247 251 251 249 243 238 242 249 250 244 236 239 241 229 229 228 224 223 222 225 227 225 223 222 224 226 227 231 231 234 235 237
246 247 251 255 254 256 247 237 243 242 245 246 250 248 245 246 252 255 257 249 242 235 236 240 241 234 233 227 226 227 226 230 236 234 234 233 234 243 243 252 253 250 250
248 249 251 255 255 252 251 238 242 246 247 242 250 247 251 249 253 257 256 246 241 238 240 244 247 245 239 234 231 235 238 236 239 245 243 241 240 242 243 248 254 258 258
247 252 252 252 262 255 252 240 247 252 252 243 247 250 253 249 253 253 255 250 252 253 249 243 249 246 243 242 236 237 240 240 241 241 243 244 247 249 250 251 255 258 258
253 253 254 252 249 253 255 250 250 252 256 259 255 261 255 253 249 250 254 252 256 255 258 255 244 242 243 241 238 242 243 241 240 242 242 245 247 250 256 258 257 256 257
253 254 255 256 257 255 251 247 246 249 249 255 261 262 263 258 253 250 251 256 257 253 260 255 249 244 243 245 245 245 245 243 243 247 244 245 247 251 252 254 253 253 257
253 257 257 259 254 255 253 249 246 245 251 252 257 271 265 258 253 247 247 250 253 256 258 258 249 252 252 244 248 250 250 247 244 245 246 246 249 252 252 254 256 255 257
261 255 256 255 254 250 248 244 239 240 249 246 219 231 293 284 247 245 245 248 253 254 253 252 253 251 253 252 246 247 251 250 243 242 245 246 251 256 256 255 255 257 260
269 264 259 253 252 248 246 247 241 236 239 241 222 207 187 241 318 259 249 250 251 251 249 251 251 250 249 249 250 250 248 250 251 246 245 246 249 252 256 257 258 260 260
281 274 262 256 251 249 247 248 247 247 242 235 232 230 237 228 206 311 283 264 259 252 247 248 251 253 254 247 250 251 251 248 248 250 249 251 252 254 260 263 264 264 263
290 279 268 258 250 245 245 246 250 252 249 245 232 213 230 238 245 230 282 287 279 273 266 256 251 255 255 250 251 251 250 249 247 245 247 249 252 255 258 264 268 268 265
324 304 275 262 253 243 244 246 251 250 249 259 257 241 221 190 208 205 233 261 262 284 279 269 257 254 257 248 248 250 251 249 248 246 248 256 257 251 254 258 264 270 261
347 333 295 262 242 223 219 227 238 248 252 256 258 251 251 244 240 232 224 243 248 274 284 297 269 265 265 247 244 250 253 250 246 249 251 255 257 240 246 250 255 259 262
4 348 337 231 178 184 201 221 256 276 267 259 257 257 255 256 251 248 235 207 237 250 267 273 291 285 272 260 254 255 255 256 250 254 252 253 249 240 246 246 244 247 251
1 3 352 204 211 206 193 218 274 309 286 271 258 258 259 263 259 253 246 237 227 251 258 268 277 299 304 277 263 262 253 250 249 248 247 249 252 253 251 255 254 256 250
337 345 350 293 241 224 232 241 310 332 322 288 270 257 257 258 257 255 251 242 236 229 246 246 260 287 291 283 281 264 262 252 248 249 251 251 248 255 257 258 254 251 251
334 312 311 321 274 222 203 292 316 319 318 296 271 259 253 250 246 246 248 243 242 239 232 258 264 278 269 288 281 261 260 250 246 241 244 242 242 250 255 253 251 250 250
5 5 310 301 301 239 244 256 283 282 318 307 280 260 252 255 250 246 242 239 239 244 230 239 252 256 272 286 272 254 259 244 254 245 233 235 239 243 246 247 248 251 251
9 10 17 351 291 262 258 280 289 279 280 279 266 254 254 264 266 254 244 243 245 249 244 236 244 258 267 276 257 245 252 256 248 240 237 244 242 238 242 248 251 250 254
8 5 6 8 4 356 277 266 261 264 275 276 268 259 260 271 269 270 263 257 253 252 241 236 246 254 258 261 266 255 252 258 252 251 249 246 243 240 243 246 250 253 253
0 356 354 356 1 4 12 10 353 309 281 278 261 267 264 267 274 279 276 276 259 248 239 231 241 247 246 251 249 260 250 264 265 257 253 249 242 244 247 251 251 254 252
348 343 339 337 338 341 337 335 332 329 323 311 311 297 291 286 282 276 272 270 262 253 244 228 242 239 242 246 251 253 257 263 266 255 244 247 240 243 252 245 246 255 248
331 324 320 319 318 315 317 314 309 307 304 300 299 296 298 293 292 281 270 261 261 257 253 258 252 251 254 260 259 257 248 236 239 251 251 256 245 241 236 235 242 249 253
323 322 323 321 319 320 324 317 314 308 298 287 283 284 284 288 289 281 267 259 261 261 260 258 261 268 272 272 268 267 272 261 256 252 244 246 240 228 223 237 247 249 243
317 320 325 327 328 331 339 340 336 316 299 285 279 275 272 275 277 266 264 265 265 266 264 265 267 270 276 278 269 261 251 231 237 239 237 225 234 228 229 231 233 234 232
308 313 315 318 330 334 336 337 337 329 300 303 313 299 277 266 263 263 268 260 256 267 267 260 262 268 270 273 276 252 253 216 215 235 231 207 230 215 230 232 228 227 231